User: anonymous   Login
Location: Pine Mountain Observatory
(43.7910°N, 120.9377°W)
Time: 04:48:20
(UTC-07:00)
Language:

IDEFIX/ARIANE 42P - Orbit

View from above orbital plane
View from above orbital plane
View from above satellite
View from above satellite

Ground track
Ground track

The orbit data is extracted from the following two-line orbital elements,

1 27422U 02021B   16145.13016671  .00000003  00000-0  17264-4 0  9991
2 27422  98.2309 160.9808 0011280 314.6173  45.4089 14.29242631731105
Epoch (UTC): 24 May 2016 03:07:26
Eccentricity: 0.0011280
inclination: 98.2309°
perigee height: 786 km
apogee height: 802 km
right ascension of ascending node: 160.9808°
argument of perigee: 314.6173°
revolutions per day: 14.29242631
mean anomaly at epoch: 45.4089°
orbit number at epoch: 73110

The dashed part of the orbit path shows where the satellite is in the earth's shadow,  

DLR